Location: Clatford
(51.1667°N, 1.4833°W)
Time: 13:28:57
(UTC+00:00)

Daily predictions for brighter satellites

Satellite Brightness Start Highest point End
(mag) Time Altitude Azimuth Time Altitude Azimuth Time Altitude Azimuth
NOAA 6 4.2 16:39:23 10° SSE 16:44:34 83° WSW 16:49:46 10° NNW
Cosmos 1633 3.1 16:43:19 10° N 16:46:45 37° ENE 16:50:09 10° SE
CZ-4B R/B 2.2 16:45:06 10° N 16:48:27 55° WNW 16:51:51 10° SSW
Meteor 1-27 4.3 16:45:34 10° S 16:51:17 86° E 16:57:08 10° NNE
Cosmos 1464 Rocket 4.2 16:45:32 10° N 16:51:31 49° ENE 16:57:25 10° SSE
CORIOLIS 4.5 16:47:26 10° SE 16:52:34 46° ENE 16:57:46 10° N
Cosmos 1356 Rocket 3.7 16:49:03 10° S 16:53:06 48° E 16:57:14 10° NNE
SJ-7 4.5 16:49:31 10° SSE 16:53:44 79° ENE 16:58:01 10° NNW
Cosmos 773 Rocket 4.1 16:48:57 10° SSW 16:54:09 81° WNW 16:59:26 10° NNE
Cosmos 1455 4.4 16:51:21 10° SW 16:54:30 25° WNW 16:57:40 10° NNW
Cosmos 1680 Rocket 4.3 16:50:18 10° SSE 16:54:52 32° ESE 16:59:29 10° NE
Meteor 1-28 Rocket 4.2 16:52:38 10° N 16:56:14 47° WNW 16:59:48 10° SW
Cosmos 2369 Rocket 4.3 16:53:29 10° WNW 16:57:00 17° NNW 17:00:31 10° N
Cosmos 1470 Rocket 4.5 16:58:07 10° N 17:02:01 28° ENE 17:05:53 10° SE
YAOGAN 1 4.0 17:00:35 10° E 17:03:22 17° ENE 17:06:09 10° NNE
Cosmos 1072 Rocket 4.5 16:57:32 10° N 17:03:40 63° ENE 17:09:48 10° SSE
Cosmos 724 4.3 16:57:47 10° NW 17:03:42 89° NE 17:09:29 10° SE
PSLV R/B 4.1 16:59:47 10° NNE 17:03:57 55° E 17:08:05 10° S
ALOS 3.5 16:59:49 10° S 17:04:20 48° W 17:08:53 10° NNW
CZ-4 R/B 2.7 17:02:04 10° ESE 17:04:57 19° ENE 17:07:48 10° NNE
Cosmos 1943 Rocket 4.4 17:01:50 10° WNW 17:04:58 15° NNW 17:08:06 10° N
SMAP 3.0 17:03:06 10° SSE 17:07:42 65° ENE 17:12:20 10° N
AQUARIUS 4.2 17:03:29 10° SSE 17:07:54 59° ENE 17:12:21 10° N
Cosmos 1980 Rocket 3.1 17:04:14 10° SSE 17:09:05 30° ESE 17:13:59 10° NE
ASTEX 1 3.8 17:04:05 10° N 17:09:06 72° W 17:14:03 10° SSW
Cosmos 1862 3.4 17:06:18 10° N 17:10:15 55° ENE 17:14:11 10° SSE
ERBS 2.2 17:07:18 10° WSW 17:10:38 83° NNW 17:13:28 14° ENE
USA 215 3.6 17:04:34 10° ENE 17:10:54 54° N 17:17:15 10° WNW
SL-16 R/B 4.0 17:11:13 10° E 17:11:43 10° E 17:12:09 10° E
Cosmos 2297 Rocket 3.8 17:08:03 10° NW 17:13:18 40° WSW 17:18:31 10° S
Cosmos 2227 Rocket 3.6 17:09:00 10° NW 17:14:19 43° WSW 17:19:36 10° S
Lacrosse 4 Rocket 1.3 17:11:56 10° SSW 17:15:58 76° ESE 17:19:57 11° NE
NOSS 2-3 (E) 4.1 17:16:13 10° SSW 17:20:30 51° SE 17:24:53 13° NE
Cosmos 923 Rocket 4.0 17:16:44 10° S 17:21:53 65° ESE 17:27:03 10° NNE
Cosmos 1624 Rocket 4.0 17:17:11 10° NNW 17:22:31 62° ENE 17:27:47 10° SE
SeaSat 1 2.8 17:18:39 10° ESE 17:23:20 45° NE 17:28:02 10° NNW
USA 229 DEB 3.8 17:17:20 10° SW 17:23:58 77° NW 17:30:49 11° NE
Cosmos 2056 Rocket 3.5 17:18:54 10° NNW 17:24:00 61° ENE 17:29:08 10° SE
USA 229 3.8 17:17:26 10° SW 17:24:04 78° NW 17:30:54 11° NE
BREEZE-M DEB (TANK) 3.2 17:15:33 10° W 17:25:22 73° S 17:27:57 16° E
NOSS 3-1 (C) 3.5 17:20:23 10° SW 17:26:04 78° NW 17:32:29 11° NE
Cosmos 2263 Rocket 2.5 17:21:26 10° NNW 17:26:45 43° NE 17:32:02 10° ESE
NOSS 3-1 (A) 3.4 17:23:30 10° SW 17:29:09 81° SE 17:35:10 13° NE
Cosmos 1689 Rocket 4.3 17:26:43 10° N 17:29:21 26° WNW 17:31:58 10° SW
NOSS 2-3 (D) 3.9 17:25:55 10° SSW 17:30:14 56° SE 17:34:17 16° NE
YAOGAN 6 3.1 17:32:06 10° SE 17:35:16 33° ENE 17:38:27 10° N
H-2A R/B 2.8 17:31:31 10° S 17:35:20 81° WSW 17:39:09 10° NNW
Timation 1 Rocket 4.5 17:33:36 10° NNW 17:39:28 52° NE 17:45:17 10° SE
H-2A R/B 4.1 17:43:10 11° NNE 17:43:10 11° NNE 17:43:39 10° NNE
Cosmos 2369 3.7 17:39:14 10° SSW 17:44:55 89° WNW 17:50:39 10° NNE
Cosmos 1697 Rocket 2.7 17:40:01 10° SSW 17:45:42 88° ESE 17:51:14 11° NNE
CENTAUR R/B 3.6 17:39:35 10° NW 17:46:28 39° NNE 17:51:27 21° ENE
COBE Rocket 3.7 17:43:13 10° NNE 17:47:59 71° E 17:52:37 10° S
Envisat 2.9 17:45:00 10° SSE 17:50:04 78° ENE 17:55:10 10° NNW
Cosmos 1656 4.2 17:44:58 10° SW 17:50:24 56° NW 17:55:48 10° NNE
Cosmos 1633 Rocket 3.6 17:47:07 10° NNW 17:51:30 64° W 17:55:52 10° S
Cosmos 1151 Rocket 3.0 17:47:32 10° S 17:51:51 64° E 17:56:13 10° NNE
Cosmos 2034 Rocket 4.1 17:46:13 10° N 17:52:38 89° WSW 17:59:01 10° S
Okean-O 2.8 17:51:16 10° S 17:55:42 76° WSW 18:00:10 10° NNW
Cosmos 158 Rocket 4.0 17:53:20 10° S 17:58:28 58° ESE 18:02:06 19° NE
Cosmos 2278 3.7 17:56:25 10° SSW 18:02:06 88° WNW 18:07:04 14° NNE
Cosmos 1420 Rocket 3.9 17:57:56 10° NNW 18:03:06 62° ENE 18:08:14 10° SE
Cosmos 2360 4.1 17:57:52 10° SSW 18:03:35 82° ESE 18:08:10 17° NNE
FengYun 1-2 T 4.1 18:00:55 10° SSE 18:06:25 82° ENE 18:11:56 10° NNW
Cosmos 1844 Rocket 3.6 18:03:14 10° NNW 18:07:55 26° NE 18:08:24 26° NE
Cosmos 1328 Rocket 3.5 18:03:30 10° S 18:07:55 84° W 18:12:20 10° N
Cosmos 1634 Rocket 4.0 18:01:50 10° N 18:07:57 58° ENE 18:14:01 10° SSE
NOSS 2-3 (C) 3.9 18:03:27 10° SW 18:07:58 81° NW 18:11:06 25° NE
Cosmos 1933 Rocket 3.4 18:05:15 10° N 18:09:38 85° E 18:14:00 10° S
ATLAS 3B R/B 3.4 18:04:30 10° NW 18:10:32 35° NNE 18:12:57 27° ENE
Geosat 4.1 18:10:04 30° NE 18:12:21 52° ESE 18:17:15 10° SSW
Cosmos 1452 Rocket 3.5 18:07:07 10° NNW 18:12:23 60° ENE 18:16:36 16° SE
COSMO-SKYMED 1 2.5 18:10:49 21° NNE 18:13:36 62° ESE 18:17:54 10° S
Cosmos 2228 Rocket 3.2 18:10:10 10° SSE 18:14:30 50° E 18:16:06 34° NE
USA 238 DEB 3.9 18:07:30 10° NW 18:14:32 61° NE 18:18:43 27° ESE
USA 238 3.9 18:07:36 10° NW 18:14:39 61° NE 18:18:47 27° ESE
Cosmos 1515 Rocket 3.4 18:10:24 10° S 18:14:45 74° E 18:18:15 16° NNE
Cosmos 44 3.4 18:10:37 10° NNW 18:14:47 41° NE 18:15:05 40° NE
Cosmos 1816 Rocket 4.4 18:10:00 10° S 18:16:21 81° E 18:22:45 10° NNE
NOSS 3-2 (A) 4.0 18:10:10 10° NW 18:17:16 60° NE 18:21:46 27° ESE
Cosmos 2278 Rocket 4.0 18:14:31 10° N 18:17:38 15° NNE 18:17:40 15° NNE
NOAA 15 4.5 18:15:00 10° SSE 18:20:18 81° ENE 18:25:36 10° NNW
COSMOS 2455 4.1 18:16:29 10° SSE 18:19:46 22° SE 18:19:46 22° SE
APEX 2.8 18:19:01 10° SW 18:22:07 61° WNW 18:22:07 61° WNW
Cosmos 2279 Rocket 4.1 18:17:38 10° N 18:23:41 49° ENE 18:29:41 10° SSE
CSL-04 Debris 4.1 18:18:45 10° SSE 18:24:15 83° ENE 18:29:46 10° NNW
Tsikada Rocket 4.0 18:19:34 10° S 18:25:59 88° E 18:32:27 10° N
NOAA 11 4.1 18:21:08 10° SSE 18:26:29 63° ENE 18:31:53 10° N
SL-8 R/B 4.4 18:27:11 10° SW 18:31:39 38° SSE 18:32:04 37° SE
Cosmos 1606 2.6 18:28:33 10° S 18:32:01 73° SSE 18:32:01 73° SSE
Ariane Rocket 3.1 18:32:52 50° ENE 18:33:03 50° ENE 18:37:58 10° N
CSL-04 Rocket 3.6 18:28:24 10° SSE 18:33:44 86° WSW 18:39:03 10° NNW
Cosmos 1680 Rocket 4.4 18:31:47 10° SW 18:36:49 46° WNW 18:41:10 14° NNE
YAOGAN 1 2.7 18:34:38 10° S 18:38:58 73° WSW 18:43:19 10° NNW
CZ-4 R/B 2.0 18:35:38 10° S 18:39:39 55° W 18:43:37 10° NNW
Cosmos 1939 Rocket 3.7 18:42:28 39° N 18:42:28 39° N 18:45:09 10° N
Meteor 1-26 Rocket 4.2 18:35:10 10° S 18:41:06 69° E 18:45:50 16° NNE
GEOS 3 Rocket 3.5 18:41:59 54° ENE 18:43:08 74° SE 18:48:24 10° SW
Cosmos 1844 4.5 18:40:06 10° NNW 18:44:40 35° NNE 18:44:40 35° NNE
BREEZE-M DEB (TANK) 4.4 18:44:56 10° W 18:46:16 22° WSW 18:46:16 22° WSW
ERBS 4.1 18:44:18 10° WNW 18:46:28 27° NW 18:46:28 27° NW
Cosmos 1933 4.0 18:47:52 10° SSW 18:51:51 53° WNW 18:53:15 35° NNW
Cosmos 1980 Rocket 2.7 18:47:13 10° SW 18:52:49 57° NW 18:55:57 26° NNE
USA 215 3.3 18:51:53 50° ENE 18:53:32 66° NNE 19:00:00 10° WNW
SL-16 R/B 2.3 18:49:03 10° S 18:54:04 56° SE 18:54:04 56° SE
Lacrosse 4 Rocket 3.4 18:52:02 10° W 18:55:08 21° NW 18:56:16 18° NNW
Cosmos 2180 Rocket 4.3 18:50:32 10° N 18:56:41 66° ENE 18:57:38 58° ESE
Cosmos 2322 Rocket 2.7 18:54:52 10° S 18:58:55 44° SSE 18:58:55 44° SSE
SeaSat 1 3.9 18:56:23 10° S 19:00:56 37° WSW 19:05:31 10° NW
Cosmos 1869 Rocket 4.3 18:56:53 10° NNW 18:59:53 43° NNW 18:59:53 43° NNW
SKYMED 2 4.5 18:59:30 25° N 19:01:43 47° WNW 19:05:53 10° SW
NOSS 3-2 (C) 3.9 18:57:18 10° NW 19:04:33 70° NE 19:06:15 55° E
Cosmos 2263 Rocket 3.4 19:05:30 10° NW 19:10:41 40° WSW 19:15:50 10° S
H-2A R/B 4.0 19:23:47 19° N 19:23:47 19° N 19:25:18 10° N
CENTAUR R/B 2.9 19:30:30 10° NW 19:38:19 79° NE 19:38:39 77° ENE
Cosmos 1844 Rocket 3.9 19:46:50 10° NNW 19:50:05 36° NW 19:50:05 36° NW
ATLAS 3B R/B 3.2 19:55:23 10° NW 20:00:13 51° NW 20:00:13 51° NW
ATLAS 2AS CENTAUR R/B 4.4 19:54:28 10° SSW 19:57:20 24° S 19:57:20 24° S
Cosmos 2278 Rocket 4.3 19:57:55 10° NNW 19:59:30 18° NNW 19:59:30 18° NNW
COSMOS 2455 4.5 20:00:29 10° SW 20:02:57 26° SW 20:02:57 26° SW
USA 215 4.4 20:39:14 38° WNW 20:39:14 38° WNW 20:43:07 10° WNW
SL-16 R/B 4.4 20:33:58 10° WSW 20:35:59 20° W 20:35:59 20° W
